Weather History for Skagway, AK

Change the Weather History Date:

Wednesday, March 16, 2011

  Actual Average Record
Temperature  
Mean Temperature 36 °F -  
Max Temperature 39 °F 35 °F 52 °F (1989)
Min Temperature 32 °F 24 °F 3 °F (2006)
Degree Days  
Heating Degree Days 30    
Moisture  
Dew Point 25 °F    
Average Humidity 72    
Maximum Humidity 96    
Minimum Humidity 50    
Precipitation  
Precipitation 0.02 in - - ()
Sea Level Pressure  
Sea Level Pressure 29.45 in    
Wind  
Wind Speed 6 mph (NNE)    
Max Wind Speed 14 mph    
Max Gust Speed 26 mph    
Visibility 8 miles    
Events Snow    
Averages and records for this station are not official NWS values.
T = Trace of Precipitation, MM = Missing Value Source: NWS Daily Summary

Daily Weather History Graph

Daily Weather History Graph

Search for Another Location

Airport:

Trip Planner

Search our weather history database for the weather conditions in past years. The results will help you decide how hot, cold, wet, or windy it might be!

Date:

Astronomy

Mar. 16, 2011 Rise Set
Actual Time 7:15 AM AKDT 7:06 PM AKDT
Civil Twilight 6:34 AM AKDT 7:46 PM AKDT
Nautical Twilight 5:46 AM AKDT 8:35 PM AKDT
Astronomical Twilight 4:54 AM AKDT 9:27 PM AKDT
Moon 3:12 PM AKDT (3/16) 5:55 AM AKDT (3/16)
Length of Visible Light 13h 12m
Length of Day
11h 51m
Waxing Gibbous, 88% of the Moon is Illuminated
Mar 16
Waxing Gibbous
Mar 19
Full
Mar 26
Last Quarter
Apr 3
New
Apr 11
First Quarter

Hourly Weather History & Observations

Time (AKDT) Temp. Windchill Dew Point Humidity Pressure Visibility Wind Dir Wind Speed Gust Speed Precip Events Conditions
12:53 AM 33.1 °F 26.9 °F 19.9 °F 59% 29.38 in 10.0 mi NNE 6.9 mph - N/A   Overcast
1:53 AM 32.0 °F 27.5 °F 21.0 °F 64% 29.37 in 10.0 mi Variable 4.6 mph - N/A   Overcast
2:53 AM 33.1 °F 24.4 °F 19.0 °F 56% 29.38 in 10.0 mi North 11.5 mph 19.6 mph N/A   Overcast
3:53 AM 32.0 °F 23.6 °F 19.0 °F 59% 29.38 in 10.0 mi NE 10.4 mph 26.5 mph N/A   Overcast
4:53 AM 32.0 °F 27.5 °F 21.0 °F 64% 29.38 in 10.0 mi NNE 4.6 mph - N/A   Overcast
5:53 AM 32.0 °F 25.6 °F 19.9 °F 61% 29.39 in 10.0 mi NNE 6.9 mph 16.1 mph N/A   Overcast
6:53 AM 32.0 °F 22.1 °F 19.0 °F 59% 29.38 in 10.0 mi NNE 13.8 mph 19.6 mph N/A   Overcast
7:53 AM 32.0 °F 27.5 °F 21.0 °F 64% 29.37 in 10.0 mi North 4.6 mph - N/A   Overcast
8:53 AM 32.0 °F 23.0 °F 19.0 °F 59% 29.38 in 10.0 mi NE 11.5 mph 26.5 mph N/A   Overcast
9:53 AM 33.1 °F 23.4 °F 18.0 °F 54% 29.39 in 10.0 mi NNE 13.8 mph 24.2 mph N/A   Overcast
10:53 AM 34.0 °F 24.6 °F 17.1 °F 50% 29.39 in 10.0 mi NE 13.8 mph 25.3 mph N/A   Overcast
11:53 AM 35.1 °F 26.4 °F 19.0 °F 52% 29.39 in 10.0 mi NE 12.7 mph 18.4 mph N/A   Mostly Cloudy
12:53 PM 37.0 °F 33.3 °F 21.0 °F 52% 29.40 in 10.0 mi Variable 4.6 mph 17.3 mph N/A   Overcast
1:53 PM 37.0 °F - 24.1 °F 59% 29.38 in 10.0 mi Calm Calm - N/A   Overcast
2:53 PM 37.0 °F - 26.1 °F 65% 29.40 in 10.0 mi Calm Calm - N/A   Overcast
3:53 PM 39.0 °F - 26.1 °F 60% 29.40 in 10.0 mi Calm Calm - N/A   Overcast
4:53 PM 37.9 °F - 27.0 °F 65% 29.39 in 10.0 mi Calm Calm - N/A   Overcast
5:53 PM 37.0 °F - 28.0 °F 70% 29.43 in 10.0 mi Calm Calm - N/A   Overcast
6:53 PM 36.0 °F - 28.9 °F 76% 29.45 in 10.0 mi Calm Calm - N/A   Overcast
7:53 PM 34.0 °F - 28.9 °F 82% 29.48 in 10.0 mi Calm Calm - N/A   Overcast
8:53 PM 34.0 °F 28.0 °F 32.0 °F 92% 29.51 in 10.0 mi SSW 6.9 mph - 0.00 in   Overcast
9:53 PM 34.0 °F 28.8 °F 32.0 °F 92% 29.54 in 7.0 mi SW 5.8 mph - N/A   Overcast
10:10 PM 33.8 °F - 32.0 °F 93% 29.55 in 3.0 mi Calm Calm - 0.00 in Snow Light Snow
10:16 PM 33.8 °F - 32.0 °F 93% 29.55 in 2.5 mi Calm Calm - 0.00 in Snow Light Snow
10:23 PM 33.8 °F - 32.0 °F 93% 29.55 in 3.0 mi Calm Calm - 0.00 in Snow Light Snow
10:53 PM 33.1 °F - 32.0 °F 96% 29.56 in 4.0 mi Calm Calm - 0.01 in Snow Light Snow
11:11 PM 32.0 °F - 30.2 °F 93% 29.58 in 2.0 mi Calm Calm - 0.00 in Snow Light Snow
11:22 PM 32.0 °F 28.7 °F 30.2 °F 93% 29.59 in 1.8 mi NNE 3.5 mph - 0.01 in Snow Light Snow
11:34 PM 32.0 °F 27.5 °F 30.2 °F 93% 29.60 in 2.5 mi NE 4.6 mph - 0.01 in Snow Light Snow
11:53 PM 32.0 °F 26.4 °F 30.9 °F 96% 29.61 in 2.5 mi NE 5.8 mph - 0.01 in Snow Light Snow